STARLINK-11396, 62015

Orbit data source: Space-Track

STARLINK-11396, 62015 is a payload satellite owned by SpaceX/Seattle (US) in LEO that was launched on Mon, 18 Nov 2024 UTC via an FALCON 9 launch vehicle from the Air Force Western Test Range (AFWTR). Payload-class satellites include a variety of spacecraft equipped with specific instruments for various scientific and technological missions. These include communications satellites like Starlink; space stations such as the ISS; scientific satellites like the Hubble; Earth observation satellites from companies like Planet Labs, Umbra, and HawkEye 360; GPS; miniature CubeSats for education and research; and military/defense satellites.

Loading next visibility...
Identifier
62015, 2024-213H
Orbit
LEO
Country
Flag of USUS
Related business
Manufacturer
SpaceX/Seattle
Mission
Operational Commercial Communications
Bus & Motor
STARLINK V2MD, Unknown motor
Mass
960 kg wet, ~910 kg dry
Launch date (UTC)
2024-11-18 (10 months ago)
Launch vehicle
FALCON 9
Launch site
Air Force Western Test Range (AFWTR)
Object type
Payload
Rocket body
Debris
Shape & HBR
Box + 2 Pan, 14.5 m
Radar Cross Section
36.964 m², Large (>1 m²)

Expand to show TLE details & history
Last TLE update: 1 day ago

TLE from 1 day ago
0 STARLINK-11396
1 62015U 24213H   25260.03394676  .00094092  00000-0  77207-3 0  9999
2 62015  53.1573 177.0930 0001076 117.9352 242.1775 15.69730180 47648
Epoch: 2025-09-17T00:48Z
TLE epoch observation values (Epoch: 2025-09-17T00:48:53Z)
Latitude
0.00001°
Longitude
168.65647°
Altitude
360.922 km
Speed
7.694 km/s
True Right ascension
11h 48m 22s
True Declination
0° 00' 00"
Sunlit
Object was in daylight at epoch
Visualization orbit readout
Latitude
Unknown
Longitude
Unknown
Altitude
Unknown
Speed
Unknown
Apparent Right ascension
Unknown
Apparent Declination
Unknown
Sunlit
N/A
Visualization observer readout
Local Sidereal Time
19:49:26
Azimuth
Unknown
Elevation
Unknown
Doppler factor
Unknown
Orbital elements
Apogee altitude
360.655 km
Perigee altitude
359.205 km
Semi-major axis
6,738.067 km
Eccentricity
0.00011
Inclination
53.1573°
RAAN
177.093°
Arg. of periapsis
117.9352°
True anomaly
242.1666°
Mean anomaly
242.1775°
Eccentric anomaly
242.17205°
Mean motion
3.9241 °/min
Orbital period
91.74 mins
BSTAR
0.00077207
Loading maneuver chart data...
Computing Atmospheric mass density...
Loading historical data...
Loading historical data...
Loading historical data...
Loading historical data...
Loading historical data...
Loading historical data...
Loading historical data...

Documentation

Showing up to 5 results
|